Monroe, MI

11:43 AM EST on November 21, 2019 (GMT -0500)
Custer

Weather History for KTTF - October, 2019

Change the Weather History Date:

Sunday, October 20, 2019

  Actual Average Record
Temperature  
Mean Temperature 56 °F -  
Max Temperature 69 °F 57 °F 82 °F (1953)
Min Temperature 42 °F 40 °F 25 °F (1952)
Degree Days  
Heating Degree Days 10    
Growing Degree Days 6 (Base 50)    
Moisture  
Dew Point 45 °F    
Average Humidity 75    
Maximum Humidity 88    
Minimum Humidity 34    
Precipitation  
Precipitation 0.00 in - - ()
Sea Level Pressure  
Sea Level Pressure 29.87 in    
Wind  
Wind Speed 1 mph (SW)    
Max Wind Speed 6 mph    
Max Gust Speed -    
Visibility 9 miles    
Events Fog    
Averages and records for this station are not official NWS values.
T = Trace of Precipitation, MM = Missing Value Source: NWS Daily Summary

Daily Weather History Graph

Daily Weather History Graph

Search for Another Location

Airport or City:

Astronomy

Oct. 20, 2019 Rise Set
Actual Time 7:51 AM EDT 6:44 PM EDT
Civil Twilight 7:23 AM EDT 7:13 PM EDT
Nautical Twilight 6:50 AM EDT 7:45 PM EDT
Astronomical Twilight 6:18 AM EDT 8:17 PM EDT
Moon 11:48 PM EDT (10/20) 2:22 PM EDT (10/20)
Length of Visible Light 11h 49m
Length of Day
10h 53m
Waning Gibbous, 59% of the Moon is Illuminated
Oct 20
Waning Gibbous
Oct 21
Last Quarter
Oct 27
New
Nov 4
First Quarter
Nov 12
Full

Hourly Weather History & Observations

Time (EDT) Temp. Dew Point Humidity Pressure Visibility Wind Dir Wind Speed Gust Speed Precip Events Conditions
12:15 AM 45.9 °F 42.3 °F 87% 29.82 in 0.5 mi Calm Calm - N/A Fog Fog
12:35 AM 44.8 °F 41.2 °F 87% 29.82 in 1.0 mi Calm Calm - N/A   Mostly Cloudy
12:58 AM 45.7 °F 42.1 °F 87% 29.82 in 2.5 mi Calm Calm - N/A   Clear
1:16 AM 46.4 °F 42.8 °F 87% 29.81 in 7.0 mi Calm Calm - N/A   Clear
1:35 AM 47.7 °F 44.1 °F 87% 29.81 in 10.0 mi Calm Calm - N/A   Clear
1:36 AM 47.7 °F 44.1 °F 87% 29.81 in 10.0 mi Calm Calm - N/A   Clear
1:55 AM 48.6 °F 45.0 °F 87% 29.81 in 7.0 mi SE 3.5 mph - N/A   Clear
1:56 AM 48.7 °F 45.1 °F 87% 29.81 in 7.0 mi SE 3.5 mph - N/A   Clear
2:18 AM 52.9 °F 48.2 °F 84% 29.80 in 10.0 mi SE 3.5 mph - N/A   Clear
2:37 AM 52.9 °F 46.2 °F 78% 29.80 in 10.0 mi Calm Calm - N/A   Clear
2:55 AM 52.7 °F 45.7 °F 77% 29.80 in 10.0 mi Calm Calm - N/A   Clear
3:15 AM 51.8 °F 45.5 °F 79% 29.79 in 10.0 mi Calm Calm - N/A   Clear
3:58 AM 46.6 °F 43.0 °F 87% 29.79 in 10.0 mi Calm Calm - N/A   Clear
4:16 AM 44.8 °F 41.2 °F 87% 29.79 in 10.0 mi Calm Calm - N/A   Clear
4:35 AM 45.1 °F 41.5 °F 87% 29.79 in 10.0 mi Calm Calm - N/A   Clear
4:36 AM 45.1 °F 41.5 °F 87% 29.79 in 10.0 mi Calm Calm - N/A   Clear
4:55 AM 43.2 °F 39.6 °F 87% 29.79 in 10.0 mi Calm Calm - N/A   Clear
5:19 AM 43.2 °F 39.6 °F 87% 29.79 in 7.0 mi Calm Calm - N/A   Clear
5:37 AM 43.9 °F 40.3 °F 87% 29.80 in 7.0 mi Calm Calm - N/A   Clear
5:55 AM 42.8 °F 39.2 °F 87% 29.80 in 10.0 mi Calm Calm - N/A   Clear
5:56 AM 43.0 °F 39.4 °F 87% 29.80 in 10.0 mi Calm Calm - N/A   Clear
6:15 AM 42.3 °F 38.7 °F 87% 29.81 in 10.0 mi Calm Calm - N/A   Clear
6:16 AM 42.3 °F 38.7 °F 87% 29.81 in 10.0 mi Calm Calm - N/A   Clear
6:35 AM 43.3 °F 39.7 °F 87% 29.81 in 7.0 mi Calm Calm - N/A   Clear
6:58 AM 44.6 °F 41.0 °F 87% 29.81 in 10.0 mi Calm Calm - N/A   Scattered Clouds
7:16 AM 44.8 °F 41.2 °F 87% 29.82 in 10.0 mi Calm Calm - N/A   Scattered Clouds
7:35 AM 44.6 °F 41.0 °F 87% 29.82 in 10.0 mi Calm Calm - N/A   Mostly Cloudy
7:55 AM 46.2 °F 42.6 °F 87% 29.82 in 10.0 mi Calm Calm - N/A   Overcast
8:19 AM 46.9 °F 43.3 °F 87% 29.83 in 10.0 mi Calm Calm - N/A   Overcast
8:37 AM 47.5 °F 43.9 °F 87% 29.83 in 10.0 mi Calm Calm - N/A   Overcast
8:55 AM 48.6 °F 45.0 °F 87% 29.84 in 10.0 mi Calm Calm - N/A   Overcast
9:15 AM 50.4 °F 46.8 °F 87% 29.85 in 10.0 mi Calm Calm - N/A   Mostly Cloudy
9:16 AM 50.4 °F 46.8 °F 87% 29.86 in 10.0 mi Calm Calm - N/A   Mostly Cloudy
9:35 AM 51.6 °F 46.2 °F 82% 29.86 in 10.0 mi Calm Calm - N/A   Overcast
9:40 AM 52.0 °F 46.0 °F 80% 29.86 in 10.0 mi Calm Calm - N/A   Overcast
9:58 AM 54.7 °F 47.1 °F 76% 29.87 in 10.0 mi Calm Calm - N/A   Overcast
10:16 AM 54.7 °F 46.9 °F 75% 29.87 in 10.0 mi Calm Calm - N/A   Overcast
10:35 AM 54.9 °F 46.8 °F 74% 29.87 in 10.0 mi West 3.5 mph - N/A   Overcast
11:19 AM 55.4 °F 47.5 °F 75% 29.88 in 10.0 mi WNW 5.8 mph - N/A   Overcast
11:37 AM 57.0 °F 47.3 °F 70% 29.88 in 10.0 mi WNW 4.6 mph - N/A   Overcast
11:55 AM 58.1 °F 46.6 °F 65% 29.89 in 10.0 mi WNW 5.8 mph - N/A   Overcast
11:56 AM 58.1 °F 46.8 °F 66% 29.89 in 10.0 mi WNW 5.8 mph - N/A   Overcast
12:15 PM 59.0 °F 46.2 °F 63% 29.89 in 10.0 mi NW 4.6 mph - N/A   Overcast
12:16 PM 59.2 °F 46.4 °F 63% 29.89 in 10.0 mi NW 4.6 mph - N/A   Overcast
12:35 PM 59.9 °F 46.6 °F 61% 29.89 in 10.0 mi Calm Calm - N/A   Overcast
12:58 PM 60.1 °F 46.0 °F 60% 29.88 in 10.0 mi Calm Calm - N/A   Overcast
1:16 PM 61.0 °F 45.3 °F 56% 29.89 in 10.0 mi Calm Calm - N/A   Overcast
1:35 PM 62.4 °F 45.9 °F 55% 29.89 in 10.0 mi Calm Calm - N/A   Overcast
1:55 PM 62.4 °F 45.9 °F 55% 29.89 in 10.0 mi Calm Calm - N/A   Overcast
1:56 PM 62.4 °F 46.4 °F 56% 29.89 in 10.0 mi Calm Calm - N/A   Overcast
2:19 PM 63.9 °F 44.4 °F 49% 29.89 in 10.0 mi Calm Calm - N/A   Mostly Cloudy
2:37 PM 64.8 °F 44.8 °F 48% 29.89 in 10.0 mi SSW 3.5 mph - N/A   Scattered Clouds
2:55 PM 66.6 °F 44.4 °F 45% 29.88 in 10.0 mi SW 3.5 mph - N/A   Clear
3:15 PM 67.1 °F 42.4 °F 41% 29.88 in 10.0 mi Calm Calm - N/A   Clear
3:39 PM 67.8 °F 42.3 °F 39% 29.88 in 10.0 mi Calm Calm - N/A   Clear
3:58 PM 69.1 °F 39.2 °F 34% 29.88 in 10.0 mi Calm Calm - N/A   Clear
4:16 PM 68.4 °F 40.1 °F 36% 29.88 in 10.0 mi Calm Calm - N/A   Clear
4:35 PM 68.2 °F 41.7 °F 38% 29.88 in 10.0 mi Calm Calm - N/A   Clear
4:36 PM 68.2 °F 41.4 °F 38% 29.88 in 10.0 mi Calm Calm - N/A   Clear
4:55 PM 68.4 °F 40.8 °F 37% 29.89 in 10.0 mi Calm Calm - N/A   Clear
4:56 PM 68.5 °F 41.0 °F 37% 29.89 in 10.0 mi Calm Calm - N/A   Clear
5:19 PM 66.7 °F 46.2 °F 48% 29.89 in 10.0 mi ESE 4.6 mph - N/A   Clear
5:37 PM 65.5 °F 45.9 °F 49% 29.89 in 10.0 mi SSE 4.6 mph - N/A   Clear
5:55 PM 64.2 °F 48.0 °F 56% 29.90 in 10.0 mi Calm Calm - N/A   Clear
5:56 PM 64.0 °F 48.0 °F 56% 29.90 in 10.0 mi Calm Calm - N/A   Clear
6:15 PM 63.0 °F 48.7 °F 60% 29.90 in 10.0 mi SE 3.5 mph - N/A   Clear
6:16 PM 63.0 °F 48.7 °F 60% 29.90 in 7.0 mi SSE 3.5 mph - N/A   Clear
6:35 PM 59.0 °F 50.0 °F 72% 29.91 in 5.0 mi Calm Calm - N/A   Haze
6:40 PM 59.7 °F 50.7 °F 72% 29.90 in 5.0 mi Calm Calm - N/A   Haze
6:58 PM 57.0 °F 52.9 °F 86% 29.90 in 10.0 mi Calm Calm - N/A   Clear
7:16 PM 54.7 °F 50.7 °F 86% 29.91 in 10.0 mi Calm Calm - N/A   Clear
7:35 PM 53.6 °F 49.6 °F 86% 29.92 in 10.0 mi Calm Calm - N/A   Clear
7:36 PM 53.6 °F 49.6 °F 86% 29.92 in 10.0 mi Calm Calm - N/A   Clear
7:55 PM 52.2 °F 48.6 °F 88% 29.93 in 10.0 mi Calm Calm - N/A   Clear
7:56 PM 51.8 °F 48.2 °F 88% 29.93 in 10.0 mi Calm Calm - N/A   Clear
8:19 PM 51.3 °F 47.7 °F 87% 29.94 in 10.0 mi Calm Calm - N/A   Clear
8:37 PM 49.5 °F 45.9 °F 87% 29.94 in 7.0 mi Calm Calm - N/A   Clear
8:55 PM 49.5 °F 45.9 °F 87% 29.95 in 10.0 mi Calm Calm - N/A   Clear
9:15 PM 49.5 °F 45.9 °F 87% 29.95 in 5.0 mi Calm Calm - N/A   Clear
9:16 PM 49.3 °F 45.7 °F 87% 29.95 in 5.0 mi Calm Calm - N/A   Clear
9:35 PM 49.1 °F 45.5 °F 87% 29.95 in 7.0 mi Calm Calm - N/A   Clear
9:40 PM 48.9 °F 45.3 °F 87% 29.95 in 3.0 mi Calm Calm - N/A   Clear
9:58 PM 48.2 °F 44.6 °F 87% 29.95 in 2.0 mi Calm Calm - N/A   Clear
10:16 PM 48.2 °F 44.6 °F 87% 29.96 in 1.0 mi Calm Calm - N/A   Mist
10:35 PM 46.4 °F 42.8 °F 87% 29.96 in 1.5 mi Calm Calm - N/A   Mist
10:55 PM 46.4 °F 42.8 °F 87% 29.97 in 7.0 mi Calm Calm - N/A   Clear
10:56 PM 46.4 °F 42.8 °F 87% 29.97 in 7.0 mi Calm Calm - N/A   Clear
11:19 PM 46.4 °F 42.8 °F 87% 29.97 in 7.0 mi Calm Calm - N/A   Clear
11:37 PM 44.4 °F 40.8 °F 87% 29.97 in 1.2 mi Calm Calm - N/A   Mist
11:55 PM 46.4 °F 42.8 °F 87% 29.96 in 4.0 mi Calm Calm - N/A   Clear